Location: Arborea
(39.7744°N, 8.5819°E)
Time: 05:50:16
(UTC+00:00)

Cosmos 2322 - Pass Details

Date: 07 June 2022
Orbit: 840 x 855 km, 71.0° (Epoch: 03 July)

Event Time Altitude Azimuth Distance (km) Brightness Sun altitude
Rises 19:37:03 0° 178° (S) 3,404 6.5 -8.0°
Reaches altitude 10° 19:39:39 10° 170° (S) 2,474 5.7 -8.4°
Maximum altitude 19:44:49 37° 105° (ESE) 1,305 4.3 -9.1°
Drops below altitude 10° 19:50:01 10° 40° (NE) 2,492 6.2 -9.9°
Sets 19:52:38 0° 32° (NNE) 3,432 7.0 -10.3°
